Showing default

OPS 8480 (TRANSIT 5B-6), 1420

Orbit data source: Space-Track

OPS 8480 (TRANSIT 5B-6), 1420 is a payload satellite owned by USN BuWeps (US) in LEO that was launched on Thu, 24 Jun 1965 UTC via a THOR ABLESTAR launch vehicle from the Air Force Western Test Range (AFWTR). Payload-class satellites include a variety of spacecraft equipped with specific instruments for various scientific and technological missions. These include communications satellites like Starlink; space stations such as the ISS; scientific satellites like the Hubble; Earth observation satellites from companies like Planet Labs, Umbra, and HawkEye 360; GPS; miniature CubeSats for education and research; and military/defense satellites.

Loading next visibility...
Identifier
1420, 1965-048A
Orbit
LEO
Country
Flag of USUS
Related business
Manufacturer
APL
Mission
Spacecraft
Bus & Motor
TRANSIT 5, Unknown motor
Mass
~54 kg wet, ~54 kg dry
Launch date (UTC)
1965-06-24 (61 years ago)
Launch vehicle
THOR ABLESTAR
Launch site
Air Force Western Test Range (AFWTR)
Object type
Payload
Rocket body
Debris
Shape & HBR
Unknown
Radar Cross Section
Large (>1 m²)

Expand to show TLE details & history
Last TLE update: 14 hours ago

TLE from 14 hours ago
0 OPS 8480 (TRANSIT 5B-6)
1  1420U 65048A   26150.98071294  .00000117  00000-0  15992-3 0  9992
2  1420  89.8770 286.4030 0075298 120.3465   0.8812 13.51904419  1134
Epoch: 2026-05-30T23:32Z
TLE epoch observation values (Epoch: 2026-05-30T23:32:13.598Z)
Latitude
58.85079°
Longitude
-135.34506°
Altitude
1,019.247 km
Speed
7.375 km/s
True Right ascension
07h 04m 48s
True Declination
58° 42' 13"
Sunlit
Object was in daylight at epoch
Visualization orbit readout
Latitude
Unknown
Longitude
Unknown
Altitude
Unknown
Speed
Unknown
Apparent Right ascension
Unknown
Apparent Declination
Unknown
Sunlit
N/A
Visualization observer readout
Local Sidereal Time
23:25:37
Azimuth
Unknown
Elevation
Unknown
Doppler factor
Unknown
Orbital elements
Apogee altitude
1,118.332 km
Perigee altitude
1,006.282 km
Semi-major axis
7,440.444 km
Eccentricity
0.00753
Inclination
89.877°
RAAN
286.403°
Arg. of periapsis
120.3465°
True anomaly
0.8946°
Mean anomaly
0.8812°
Eccentric anomaly
0.88789°
Mean motion
3.38178 °/min
Orbital period
106.45 mins
BSTAR
0.00015992
Loading maneuver chart data...
Computing Atmospheric mass density...

Documentation

Showing up to 5 results
|